EA4DB Madrid ES current weather conditions

sailwx.info

Wind from 090

Air temperature 25.6° C
Dewpoint 12.0° C

Last reported at 2014-Aug-28 00:51 UTC.
Time now 2014-Aug-28 01:24 UTC

Location: N 40°25' W 003°39'.
View on Google Maps.

See reports from other nearby stations

  
Tides and Currents Weather Stations Pressure Air Temp Water Temp Dewpoint Dewpoint Depression Visibility Wind Speed Wind Dir Waves Ship Positions
date/time (UTC)wind fromknots sea level pressurealtimeterstation pressurevisibilityair tempwater tempwave heightnotes
2014-Aug-28 00:51 090 25.6
2014-Aug-28 00:46 090 25.0
2014-Aug-28 00:41 090 25.6
2014-Aug-28 00:36 135 25.6
2014-Aug-28 00:31 135 25.6
2014-Aug-27 23:46 180 26.1
2014-Aug-27 23:41 180 26.1
2014-Aug-27 23:36 135 26.1
2014-Aug-27 23:31 090 26.7
2014-Aug-27 23:26 090 26.1
2014-Aug-27 23:21 090 26.1
2014-Aug-27 23:16 090 26.7
2014-Aug-27 23:11 090 26.1
2014-Aug-27 23:06 090 26.7
2014-Aug-27 23:01 090 26.7
2014-Aug-27 22:56 090 26.7
2014-Aug-27 22:51 090 27.2
2014-Aug-27 22:46 090 27.2
2014-Aug-27 22:36 090 28.3
2014-Aug-27 22:31 090 28.3
2014-Aug-27 22:26 090 0 gusting 1 28.3
2014-Aug-27 22:21 090 28.3
2014-Aug-27 22:16 28.3
2014-Aug-27 22:11 28.9
2014-Aug-27 22:06 090 0 gusting 1 28.9
2014-Aug-27 22:01 090 0 gusting 1 28.9
2014-Aug-27 21:56 090 28.3
2014-Aug-27 21:51 135 28.9
2014-Aug-27 21:46 045 28.3
2014-Aug-27 21:41 28.9
2014-Aug-27 21:36 090 28.9
2014-Aug-27 21:31 180 29.4
2014-Aug-27 21:26 225 0 gusting 2 29.4
2014-Aug-27 21:21 180 28.9
2014-Aug-27 21:16 203 3 gusting 5 28.9
2014-Aug-27 21:11 180 28.9
2014-Aug-27 21:06 180 29.4
2014-Aug-27 21:01 180 29.4
2014-Aug-27 20:56 180 0 gusting 1 29.4
2014-Aug-27 20:51 090 30.0
2014-Aug-27 20:46 30.0
2014-Aug-27 20:41 30.6
2014-Aug-27 20:36 090 30.6
2014-Aug-27 20:31 31.1
2014-Aug-27 20:26 31.1
2014-Aug-27 20:21 31.1
2014-Aug-27 20:16 315 1 gusting 3 30.6
2014-Aug-27 20:11 31.7
2014-Aug-27 20:06 31.7
2014-Aug-27 20:01 31.7
2014-Aug-27 19:56 315 1 gusting 1 31.7
2014-Aug-27 19:51 315 0 gusting 1 32.2
2014-Aug-27 19:46 225 1 gusting 2 32.2
2014-Aug-27 19:41 180 1 gusting 3 32.2
2014-Aug-27 19:31 270 32.8
2014-Aug-27 19:26 225 0 gusting 3 32.8
2014-Aug-27 19:21 315 1 gusting 5 32.8
2014-Aug-27 19:16 225 1 gusting 6 32.8
2014-Aug-27 19:11 315 1 gusting 5 32.8
2014-Aug-27 19:06 315 1 gusting 3 32.8
2014-Aug-27 19:01 315 1 gusting 4 32.8
2014-Aug-27 18:56 32.8
2014-Aug-27 18:51 135 33.3
2014-Aug-27 18:46 135 33.3
2014-Aug-27 18:41 225 0 gusting 2 33.3
2014-Aug-27 18:36 225 33.3
2014-Aug-27 18:31 225 33.9
2014-Aug-27 18:26 270 33.9
2014-Aug-27 18:21 33.9
2014-Aug-27 18:16 315 0 gusting 1 33.9
2014-Aug-27 18:11 180 33.9
2014-Aug-27 18:06 33.9
2014-Aug-27 18:01 33.9
2014-Aug-27 17:56 315 0 gusting 3 33.9
2014-Aug-27 17:51 315 33.3
2014-Aug-27 17:46 315 33.9
2014-Aug-27 17:41 315 1 gusting 4 34.4
2014-Aug-27 17:36 315 3 gusting 5 35.0
2014-Aug-27 17:31 34.4
2014-Aug-27 17:26 315 3 gusting 6 35.0
2014-Aug-27 17:21 135 35.6
2014-Aug-27 17:16 090 36.7
2014-Aug-27 17:11 36.7
2014-Aug-27 17:06 225 36.7
2014-Aug-27 17:01 270 36.1
2014-Aug-27 16:56 225 35.6
2014-Aug-27 16:51 135 1 gusting 1 36.1
2014-Aug-27 16:46 135 1 gusting 3 35.6
2014-Aug-27 16:41 180 35.6
2014-Aug-27 16:36 225 35.6
2014-Aug-27 16:31 203 2 gusting 6 35.0
2014-Aug-27 16:26 270 35.0
2014-Aug-27 16:21 180 3 gusting 8 35.6
2014-Aug-27 16:16 225 4 gusting 10 35.6
2014-Aug-27 16:11 270 1 gusting 3 36.1
2014-Aug-27 16:06 270 1 gusting 6 35.6
2014-Aug-27 16:01 315 3 gusting 6 36.1
2014-Aug-27 15:56 225 1 gusting 5 36.1
2014-Aug-27 15:51 36.7
2014-Aug-27 15:46 270 1 gusting 6 37.2
2014-Aug-27 15:41 225 1 gusting 6 36.7
2014-Aug-27 15:36 225 3 gusting 9 37.8
2014-Aug-27 15:31 270 0 gusting 3 36.7
2014-Aug-27 15:26 225 2 gusting 9 35.6
2014-Aug-27 15:21 315 3 gusting 9 36.7
2014-Aug-27 15:16 293 4 gusting 9 38.3
2014-Aug-27 15:11 225 1 gusting 5 38.9
2014-Aug-27 15:06 090 0 gusting 7 38.3
2014-Aug-27 15:01 225 0 gusting 7 38.3
2014-Aug-27 14:56 180 1 gusting 9 37.8
2014-Aug-27 14:51 180 2 gusting 6 38.3
2014-Aug-27 14:46 135 0 gusting 7 37.8
2014-Aug-27 14:41 315 3 gusting 8 37.8
2014-Aug-27 14:36 225 3 gusting 7 37.8
2014-Aug-27 14:31 270 2 gusting 7 38.9
2014-Aug-27 14:26 225 3 gusting 6 38.9
2014-Aug-27 14:21 135 3 gusting 13 38.9
2014-Aug-27 14:16 225 38.9
2014-Aug-27 14:11 090 0 gusting 3 37.8
2014-Aug-27 14:06 225 2 gusting 9 37.2
2014-Aug-27 14:01 225 1 gusting 3 37.2
2014-Aug-27 13:56 270 1 gusting 9 36.7
2014-Aug-27 13:51 293 1 gusting 8 36.7
2014-Aug-27 13:46 225 0 gusting 4 37.2
2014-Aug-27 13:41 225 0 gusting 4 37.2
2014-Aug-27 13:36 135 1 gusting 5 36.7
2014-Aug-27 13:31 225 1 gusting 6 36.7
2014-Aug-27 13:26 180 1 gusting 6 36.1
2014-Aug-27 13:21 180 1 gusting 8 36.7
2014-Aug-27 13:16 315 1 gusting 6 36.7
2014-Aug-27 13:11 180 3 gusting 4 37.2
2014-Aug-27 13:06 203 3 gusting 5 36.1
2014-Aug-27 13:01 203 3 gusting 6 36.1
2014-Aug-27 12:56 180 3 gusting 8 37.2
2014-Aug-27 12:51 090 1 gusting 6 36.1
2014-Aug-27 12:46 315 1 gusting 3 36.1
2014-Aug-27 12:41 338 0 gusting 6 35.0
2014-Aug-27 12:36 180 2 gusting 6 35.0
2014-Aug-27 12:31 180 3 gusting 7 35.6
2014-Aug-27 12:26 180 35.0
2014-Aug-27 12:21 225 3 gusting 8 35.0
2014-Aug-27 12:16 180 1 gusting 6 35.6
2014-Aug-27 12:11 225 2 gusting 6 35.0
2014-Aug-27 12:06 225 1 gusting 3 35.0
2014-Aug-27 12:01 225 1 gusting 3 35.0
2014-Aug-27 11:56 225 4 gusting 6 33.9
2014-Aug-27 11:51 225 3 gusting 7 33.9
2014-Aug-27 11:46 225 2 gusting 6 33.3
2014-Aug-27 11:41 225 3 gusting 6 34.4
2014-Aug-27 11:36 225 1 gusting 4 33.9
2014-Aug-27 11:31 090 1 gusting 6 32.8
2014-Aug-27 11:26 225 3 gusting 8 32.8
2014-Aug-27 11:21 338 6 gusting 9 33.9
2014-Aug-27 11:16 180 1 gusting 5 33.9
2014-Aug-27 11:11 270 1 gusting 5 33.9
2014-Aug-27 11:06 225 1 gusting 3 33.3
2014-Aug-27 11:01 225 1 gusting 3 33.3
2014-Aug-27 10:56 32.8
2014-Aug-27 10:51 315 1 gusting 5 32.8
2014-Aug-27 10:46 180 2 gusting 6 32.8
2014-Aug-27 10:41 090 2 gusting 6 32.8
2014-Aug-27 10:36 315 1 gusting 4 33.3
2014-Aug-27 10:31 270 0 gusting 2 33.3
2014-Aug-27 10:26 180 0 gusting 2 32.8
2014-Aug-27 10:21 135 32.2
2014-Aug-27 10:16 31.7
2014-Aug-27 10:11 225 2 gusting 5 32.8
2014-Aug-27 10:06 32.8
2014-Aug-27 10:01 32.8
2014-Aug-27 09:56 315 1 gusting 3 32.2
2014-Aug-27 09:51 090 1 gusting 3 32.2
2014-Aug-27 09:46 135 1 gusting 3 32.8
2014-Aug-27 09:41 32.2
2014-Aug-27 09:36 270 0 gusting 6 32.2
2014-Aug-27 09:31 225 1 gusting 3 32.2
2014-Aug-27 09:26 32.8
2014-Aug-27 09:21 225 32.8
2014-Aug-27 09:16 32.2
2014-Aug-27 09:11 203 1 gusting 3 32.2
2014-Aug-27 09:06 180 0 gusting 2 31.7
2014-Aug-27 09:01 180 0 gusting 2 31.7
2014-Aug-27 08:56 293 0 gusting 4 31.1
2014-Aug-27 08:51 090 30.6
2014-Aug-27 08:46 31.1
2014-Aug-27 08:41 090 1 gusting 5 31.1
2014-Aug-27 08:36 30.6
2014-Aug-27 08:31 315 0 gusting 4 30.0
2014-Aug-27 08:26 135 1 gusting 4 30.6
2014-Aug-27 08:21 180 1 gusting 3 30.6
2014-Aug-27 08:11 225 1 gusting 2 30.6
2014-Aug-27 08:06 135 1 gusting 3 30.0
2014-Aug-27 08:01 225 1 gusting 3 30.0
2014-Aug-27 07:56 180 0 gusting 3 29.4
2014-Aug-27 07:51 158 0 gusting 3 28.3
2014-Aug-27 07:46 090 1 gusting 4 28.3
2014-Aug-27 07:41 315 0 gusting 3 28.9
2014-Aug-27 07:36 090 1 gusting 4 28.3
2014-Aug-27 07:31 090 0 gusting 2 28.9
2014-Aug-27 07:26 248 27.8
2014-Aug-27 07:21 090 27.2
2014-Aug-27 07:16 27.2
2014-Aug-27 07:11 225 27.2
2014-Aug-27 07:06 27.8
2014-Aug-27 07:01 27.8
2014-Aug-27 06:56 27.8
2014-Aug-27 06:51 090 0 gusting 3 27.2
2014-Aug-27 06:46 090 27.2
2014-Aug-27 06:41 26.7
2014-Aug-27 06:36 315 26.1
2014-Aug-27 06:31 090 25.0
2014-Aug-27 06:26 24.4
2014-Aug-27 06:21 270 23.3
2014-Aug-27 06:16 315 22.8
2014-Aug-27 06:11 22.8
2014-Aug-27 06:06 135 22.8
2014-Aug-27 06:01 22.2
2014-Aug-27 05:56 22.8
2014-Aug-27 05:51 22.8
2014-Aug-27 05:46 22.2
2014-Aug-27 05:41 22.2
2014-Aug-27 05:36 22.2
2014-Aug-27 05:31 22.8
2014-Aug-27 05:26 315 22.8
2014-Aug-27 05:21 22.8
2014-Aug-27 05:16 315 0 gusting 2 22.8
2014-Aug-27 05:11 270 23.3
2014-Aug-27 05:06 090 22.8
2014-Aug-27 05:01 090 22.8
2014-Aug-27 04:56 225 22.2
2014-Aug-27 04:51 135 22.8
2014-Aug-27 04:46 23.3
2014-Aug-27 04:41 22.8
2014-Aug-27 04:36 135 22.8
2014-Aug-27 04:31 315 22.8
2014-Aug-27 04:26 23.3
2014-Aug-27 04:21 23.3
2014-Aug-27 04:16 090 23.3
2014-Aug-27 04:11 090 22.8
2014-Aug-27 04:06 23.3
2014-Aug-27 04:01 23.3
2014-Aug-27 03:56 180 22.8
2014-Aug-27 03:51 090 23.3
2014-Aug-27 03:46 090 23.3
2014-Aug-27 03:41 090 0 gusting 1 23.9
2014-Aug-27 03:36 315 23.9
2014-Aug-27 03:31 090 1 gusting 3 23.9
2014-Aug-27 03:26 135 23.9
2014-Aug-27 03:21 090 23.9
2014-Aug-27 03:16 090 0 gusting 3 23.9
2014-Aug-27 03:11 090 23.9
2014-Aug-27 03:06 090 23.9
2014-Aug-27 03:01 090 23.9
2014-Aug-27 02:56 135 0 gusting 1 23.9
2014-Aug-27 02:51 090 24.4
2014-Aug-27 02:46 090 0 gusting 2 24.4
2014-Aug-27 02:41 135 24.4
2014-Aug-27 02:36 180 0 gusting 4 24.4
2014-Aug-27 02:31 23.9
2014-Aug-27 02:26 090 23.9
2014-Aug-27 02:21 180 23.9
2014-Aug-27 02:16 315 24.4
2014-Aug-27 02:11 090 24.4
2014-Aug-27 02:06 24.4
2014-Aug-27 02:01 24.4
2014-Aug-27 01:56 24.4
2014-Aug-27 01:51 24.4
2014-Aug-27 01:46 25.0
2014-Aug-27 01:41 315 1 gusting 3 25.0
2014-Aug-27 01:36 25.0
2014-Aug-27 01:31 25.0
2014-Aug-27 01:26 315 25.0
2014-Aug-27 01:21 315 0 gusting 3 25.6
2014-Aug-27 01:16 270 2 gusting 5 25.6
2014-Aug-27 01:11 25.0
2014-Aug-27 01:06 270 1 gusting 3 25.6
2014-Aug-27 01:01 270 1 gusting 6 25.6
2014-Aug-27 00:56 270 0 gusting 6 25.6
2014-Aug-27 00:51 25.6
2014-Aug-27 00:46 315 1 gusting 4 25.6
2014-Aug-27 00:41 315 3 gusting 8 25.6
2014-Aug-27 00:36 315 1 gusting 12 26.1
2014-Aug-27 00:31 270 3 gusting 8 25.6
2014-Aug-27 00:26 315 2 gusting 7 26.1
2014-Aug-27 00:21 225 1 gusting 8 26.1
2014-Aug-27 00:16 315 3 gusting 9 26.1
2014-Aug-27 00:11 315 4 gusting 10 26.7
2014-Aug-27 00:06 26.7
2014-Aug-27 00:01 26.7
2014-Aug-26 23:56 26.1
2014-Aug-26 23:51 315 0 gusting 10 26.7
2014-Aug-26 23:46 315 1 gusting 8 26.7
2014-Aug-26 23:41 26.7
2014-Aug-26 23:36 315 3 gusting 11 26.7
2014-Aug-26 23:31 315 2 gusting 9 27.2
2014-Aug-26 23:26 270 4 gusting 13 27.2
2014-Aug-26 23:21 270 6 gusting 11 27.2
2014-Aug-26 23:16 315 5 gusting 9 27.2
2014-Aug-26 23:11 26.7
2014-Aug-26 23:06 270 4 gusting 8 27.2
2014-Aug-26 23:01 270 4 gusting 8 27.2
2014-Aug-26 22:56 315 4 gusting 10 27.2
2014-Aug-26 22:51 27.2
2014-Aug-26 22:46 315 4 gusting 9 27.2
2014-Aug-26 22:41 315 3 gusting 9 27.2
2014-Aug-26 22:36 315 6 gusting 13 27.8
2014-Aug-26 22:31 27.2
2014-Aug-26 22:26 315 6 gusting 13 27.8
2014-Aug-26 22:21 27.8
2014-Aug-26 22:16 270 3 gusting 16 27.8
2014-Aug-26 22:11 270 7 gusting 13 27.8
2014-Aug-26 22:06 315 1 gusting 3 27.8
2014-Aug-26 22:01 315 1 gusting 13 27.8
2014-Aug-26 21:56 315 6 gusting 13 27.8
2014-Aug-26 21:51 315 6 gusting 15 28.3
2014-Aug-26 21:46 315 8 gusting 14 28.3
2014-Aug-26 21:41 315 5 gusting 11 28.9
2014-Aug-26 21:36 293 5 gusting 13 28.3
2014-Aug-26 21:31 315 6 gusting 14 28.3
2014-Aug-26 21:26 315 11 gusting 19 28.3
2014-Aug-26 21:21 315 6 gusting 13 28.9
2014-Aug-26 21:16 315 9 gusting 15 28.9
2014-Aug-26 21:11 315 6 gusting 14 29.4
2014-Aug-26 21:06 315 6 gusting 9 29.4
2014-Aug-26 21:01 315 6 gusting 13 29.4
2014-Aug-26 20:56 315 6 gusting 14 29.4
2014-Aug-26 20:51 315 3 gusting 13 29.4
2014-Aug-26 20:46 29.4
2014-Aug-26 20:41 270 6 gusting 16 29.4
2014-Aug-26 20:36 090 4 gusting 10 30.0
2014-Aug-26 20:31 270 2 gusting 15 29.4
2014-Aug-26 20:26 315 4 gusting 13 29.4
2014-Aug-26 20:21 30.0
2014-Aug-26 20:16 315 5 gusting 13 30.0
2014-Aug-26 20:11 30.0
2014-Aug-26 20:06 315 5 gusting 13 30.0
2014-Aug-26 20:01 315 6 gusting 14 30.0
2014-Aug-26 19:56 270 5 gusting 18 30.6
2014-Aug-26 19:51 315 5 gusting 13 30.6
2014-Aug-26 19:46 270 5 gusting 18 30.6
2014-Aug-26 19:41 30.6
2014-Aug-26 19:36 30.6
2014-Aug-26 19:31 315 6 gusting 13 30.6
2014-Aug-26 19:26 30.6
2014-Aug-26 19:21 315 4 gusting 11 30.6
2014-Aug-26 19:16 31.1
2014-Aug-26 19:11 315 5 gusting 13 30.6
2014-Aug-26 19:06 315 8 gusting 13 31.1
2014-Aug-26 19:01 31.7
2014-Aug-26 18:56 315 7 gusting 11 31.7
2014-Aug-26 18:51 31.7
2014-Aug-26 18:46 180 3 gusting 11 32.2
2014-Aug-26 18:41 315 6 gusting 14 31.7
2014-Aug-26 18:36 315 6 gusting 13 32.2
2014-Aug-26 18:31 315 4 gusting 13 32.8
2014-Aug-26 18:26 315 6 gusting 12 32.8
2014-Aug-26 18:21 33.3
2014-Aug-26 18:16 315 6 gusting 13 33.3
2014-Aug-26 18:11 315 5 gusting 13 33.9
2014-Aug-26 18:06 315 4 gusting 13 33.9
2014-Aug-26 18:01 338 7 gusting 13 33.9
2014-Aug-26 17:56 315 4 gusting 14 33.9
2014-Aug-26 17:51 315 5 gusting 13 33.9
2014-Aug-26 17:46 315 7 gusting 13 33.9
2014-Aug-26 17:41 315 5 gusting 13 34.4
2014-Aug-26 17:36 315 8 gusting 15 35.0
2014-Aug-26 17:31 34.4
2014-Aug-26 17:26 270 3 gusting 8 35.0
2014-Aug-26 17:21 315 6 gusting 13 35.0
2014-Aug-26 17:16 293 6 gusting 12 34.4
2014-Aug-26 17:11 293 6 gusting 13 35.0
2014-Aug-26 17:06 225 5 gusting 8 34.4
2014-Aug-26 17:01 225 5 gusting 14 34.4
2014-Aug-26 16:56 293 5 gusting 12 34.4
2014-Aug-26 16:51 315 6 gusting 15 34.4
2014-Aug-26 16:46 315 8 gusting 13 35.0
2014-Aug-26 16:41 315 3 gusting 13 35.0
2014-Aug-26 16:36 225 6 gusting 13 35.0
2014-Aug-26 16:31 315 6 gusting 13 35.0
2014-Aug-26 16:26 315 6 gusting 17 35.0
2014-Aug-26 16:21 315 6 gusting 18 35.0
2014-Aug-26 16:16 293 6 gusting 14 35.0
2014-Aug-26 16:11 315 3 gusting 14 35.0
2014-Aug-26 16:06 270 6 gusting 11 35.6
2014-Aug-26 16:01 270 6 gusting 13 35.6
2014-Aug-26 15:56 315 5 gusting 14 35.0
2014-Aug-26 15:51 045 6 gusting 9 35.6
2014-Aug-26 15:46 315 6 gusting 11 35.0
2014-Aug-26 15:41 315 5 gusting 14 35.6
2014-Aug-26 15:36 315 6 gusting 11 35.6
2014-Aug-26 15:31 315 3 gusting 17 35.6
2014-Aug-26 15:26 225 5 gusting 14 36.1
2014-Aug-26 15:21 36.1
2014-Aug-26 15:16 36.7
2014-Aug-26 15:11 180 4 gusting 14 36.7
2014-Aug-26 15:06 180 3 gusting 6 36.1
2014-Aug-26 15:01 180 3 gusting 9 36.1
2014-Aug-26 14:56 315 3 gusting 8 36.1
2014-Aug-26 14:51 135 3 gusting 8 36.7
2014-Aug-26 14:46 270 6 gusting 13 36.1
2014-Aug-26 14:41 293 7 gusting 12 36.1
2014-Aug-26 14:36 315 1 gusting 12 36.7
2014-Aug-26 14:31 315 6 gusting 11 36.1
2014-Aug-26 14:26 180 4 gusting 10 36.7
2014-Aug-26 14:21 36.7
2014-Aug-26 14:16 180 1 gusting 13 36.7
2014-Aug-26 14:11 36.1
2014-Aug-26 14:06 315 6 gusting 8 35.6
2014-Aug-26 14:01 315 6 gusting 10 35.6
2014-Aug-26 13:56 180 8 gusting 17 35.0
2014-Aug-26 13:51 315 3 gusting 9 35.6
2014-Aug-26 13:46 315 6 gusting 14 35.6
2014-Aug-26 13:41 225 5 gusting 13 35.6
2014-Aug-26 13:36 35.6
2014-Aug-26 13:31 248 6 gusting 9 35.6
2014-Aug-26 13:26 315 6 gusting 14 35.0
2014-Aug-26 13:21 315 6 gusting 11 35.0
2014-Aug-26 13:16 225 1 gusting 9 35.0
2014-Aug-26 13:11 135 2 gusting 13 35.0
2014-Aug-26 13:06 293 3 gusting 6 34.4
2014-Aug-26 13:01 293 3 gusting 13 34.4
2014-Aug-26 12:56 315 3 gusting 10 35.0
2014-Aug-26 12:51 225 2 gusting 13 34.4
2014-Aug-26 12:46 270 6 gusting 14 34.4
2014-Aug-26 12:41 225 1 gusting 8 34.4
2014-Aug-26 12:36 225 1 gusting 14 33.9
2014-Aug-26 12:31 315 6 gusting 18 33.9
2014-Aug-26 12:26 315 6 gusting 13 33.9
2014-Aug-26 12:21 090 2 gusting 13 34.4
2014-Aug-26 12:16 34.4
2014-Aug-26 12:11 180 2 gusting 12 34.4
2014-Aug-26 12:06 34.4
2014-Aug-26 12:01 34.4
2014-Aug-26 11:56 225 7 gusting 14 34.4
2014-Aug-26 11:51 270 7 gusting 12 34.4
2014-Aug-26 11:46 315 1 gusting 9 34.4
2014-Aug-26 11:41 270 4 gusting 15 34.4
2014-Aug-26 11:36 270 10 gusting 17 34.4
2014-Aug-26 11:31 180 1 gusting 9 33.9
2014-Aug-26 11:26 315 3 gusting 12 33.9
2014-Aug-26 11:21 315 4 gusting 11 33.3
2014-Aug-26 11:16 270 0 gusting 10 33.3
2014-Aug-26 11:11 32.8
2014-Aug-26 11:06 248 6 gusting 10 32.8
2014-Aug-26 11:01 248 6 gusting 15 32.8
2014-Aug-26 10:56 225 3 gusting 12 33.3
2014-Aug-26 10:51 315 0 gusting 10 33.3
2014-Aug-26 10:46 315 1 gusting 8 33.3
2014-Aug-26 10:41 32.8
2014-Aug-26 10:36 315 4 gusting 9 32.8
2014-Aug-26 10:31 315 2 gusting 13 32.2
2014-Aug-26 10:26 225 4 gusting 8 32.8
2014-Aug-26 10:21 180 3 gusting 8 32.2
2014-Aug-26 10:16 270 2 gusting 6 32.8
2014-Aug-26 10:11 270 2 gusting 9 32.2
2014-Aug-26 10:06 270 2 gusting 7 32.2
2014-Aug-26 10:01 270 2 gusting 10 32.2
2014-Aug-26 09:56 225 3 gusting 6 32.8
2014-Aug-26 09:51 180 2 gusting 11 32.8
2014-Aug-26 09:46 270 0 gusting 6 32.8
2014-Aug-26 09:41 270 1 gusting 6 32.8
2014-Aug-26 09:36 270 32.2
2014-Aug-26 09:31 270 3 gusting 6 32.2
2014-Aug-26 09:26 315 2 gusting 8 31.7
2014-Aug-26 09:21 270 2 gusting 6 32.2
2014-Aug-26 09:16 315 1 gusting 5 32.2
2014-Aug-26 09:11 270 3 gusting 7 32.2
2014-Aug-26 09:06 180 32.2
2014-Aug-26 09:01 180 32.2
2014-Aug-26 08:56 270 1 gusting 4 31.7
2014-Aug-26 08:51 225 1 gusting 5 30.6
2014-Aug-26 08:46 315 3 gusting 7 30.6
2014-Aug-26 08:41 315 3 gusting 6 30.6
2014-Aug-26 08:36 225 0 gusting 7 30.6
2014-Aug-26 08:31 315 3 gusting 6 30.6
2014-Aug-26 08:26 293 1 gusting 6 30.6
2014-Aug-26 08:21 315 0 gusting 6 30.0
2014-Aug-26 08:16 270 3 gusting 9 30.0
2014-Aug-26 08:11 315 4 gusting 10 30.0
2014-Aug-26 08:06 270 30.0
2014-Aug-26 08:01 270 30.0
2014-Aug-26 07:56 29.4
2014-Aug-26 07:51 315 2 gusting 5 28.9
2014-Aug-26 07:46 270 2 gusting 5 28.9
2014-Aug-26 07:41 315 1 gusting 3 28.9
2014-Aug-26 07:36 270 1 gusting 5 28.9
2014-Aug-26 07:31 225 1 gusting 5 28.9
2014-Aug-26 07:26 225 1 gusting 4 28.3
2014-Aug-26 07:21 315 1 gusting 4 28.3
2014-Aug-26 07:16 225 0 gusting 4 28.3
2014-Aug-26 07:11 270 1 gusting 3 27.8
2014-Aug-26 07:06 225 1 gusting 4 27.8
2014-Aug-26 07:01 225 1 gusting 4 27.8
2014-Aug-26 06:56 225 27.2
2014-Aug-26 06:51 180 0 gusting 4 26.7
2014-Aug-26 06:46 225 1 gusting 2 26.7
2014-Aug-26 06:41 270 1 gusting 3 26.1
2014-Aug-26 06:36 225 26.1
2014-Aug-26 06:31 225 25.6
2014-Aug-26 06:26 25.0
2014-Aug-26 06:21 225 1 gusting 3 24.4
2014-Aug-26 06:16 225 1 gusting 3 23.9
2014-Aug-26 06:11 225 1 gusting 3 23.9
2014-Aug-26 06:06 180 0 gusting 1 23.9
2014-Aug-26 06:01 180 0 gusting 4 23.9
2014-Aug-26 05:56 225 1 gusting 3 23.9
2014-Aug-26 05:51 315 0 gusting 4 24.4
2014-Aug-26 05:46 225 1 gusting 3 23.9
2014-Aug-26 05:41 225 1 gusting 3 24.4
2014-Aug-26 05:36 270 23.9
2014-Aug-26 05:31 225 1 gusting 6 24.4
2014-Aug-26 05:26 158 1 gusting 5 24.4
2014-Aug-26 05:21 225 24.4
2014-Aug-26 05:16 225 1 gusting 4 24.4
2014-Aug-26 05:11 225 2 gusting 5 23.9
2014-Aug-26 05:06 225 1 gusting 3 24.4
2014-Aug-26 05:01 225 1 gusting 3 24.4
2014-Aug-26 04:56 225 23.9
2014-Aug-26 04:51 225 1 gusting 3 24.4
2014-Aug-26 04:46 225 23.9
2014-Aug-26 04:41 225 0 gusting 1 24.4
2014-Aug-26 04:36 225 24.4
2014-Aug-26 04:31 225 0 gusting 2 23.9
2014-Aug-26 04:26 225 24.4
2014-Aug-26 04:21 180 0 gusting 3 24.4
2014-Aug-26 04:16 225 1 gusting 3 24.4
2014-Aug-26 04:11 225 0 gusting 2 25.0
2014-Aug-26 04:06 225 1 gusting 2 24.4
2014-Aug-26 04:01 225 1 gusting 3 24.4
2014-Aug-26 03:56 225 0 gusting 3 24.4
2014-Aug-26 03:51 225 1 gusting 3 24.4
2014-Aug-26 03:46 225 0 gusting 2 24.4
2014-Aug-26 03:41 315 0 gusting 3 24.4
2014-Aug-26 03:36 180 24.4
2014-Aug-26 03:31 180 0 gusting 2 24.4
2014-Aug-26 03:26 225 1 gusting 2 24.4
2014-Aug-26 03:21 180 0 gusting 1 24.4
2014-Aug-26 03:16 180 24.4
2014-Aug-26 03:11 225 25.0
2014-Aug-26 03:06 270 1 gusting 3 25.0
2014-Aug-26 03:01 270 1 gusting 3 25.0
2014-Aug-26 02:56 225 24.4
2014-Aug-26 02:51 180 25.0
2014-Aug-26 02:46 315 25.0
2014-Aug-26 02:41 270 25.6
2014-Aug-26 02:36 270 25.6
2014-Aug-26 02:31 270 25.0
2014-Aug-26 02:26 225 1 gusting 3 25.0
2014-Aug-26 02:21 315 25.6
2014-Aug-26 02:16 090 0 gusting 1 25.6
2014-Aug-26 02:11 315 25.6
2014-Aug-26 02:06 25.6
2014-Aug-26 02:01 25.6
2014-Aug-26 01:56 270 1 gusting 4 25.6
2014-Aug-26 01:51 315 1 gusting 3 26.1
2014-Aug-26 01:46 315 0 gusting 3 25.6
2014-Aug-26 01:41 270 26.1
2014-Aug-26 01:36 270 26.1
2014-Aug-26 01:31 270 0 gusting 2 26.1
2014-Aug-26 01:26 315 26.7
2014-Aug-26 01:21 270 26.1
2014-Aug-26 01:16 27.2
2014-Aug-26 01:11 225 1 gusting 3 26.7
2014-Aug-26 01:01 270 1 gusting 4 27.2